Simultaneous Nadir Overpasses (SNOs) Predictions

Prediction of SNOs between GOES-15 and TERRA Satellite Orbit:

Table of predicted SNOs for the next 14.0 days since TLE Epoch: 6/10/2023
Index Date Time (GOES-15) GOES-15 Lat,Lon TERRA Lat,Lon Distance(km) Time Diff (sec)
1 06/11/2023 08:29:03 0.24,-159.60 0.94,-156.28 377.76 80
2 06/11/2023 20:51:54 -0.22,-159.83 0.08,-161.18 154.42 80
3 06/13/2023 20:32:57 -0.23,-160.64 -0.91,-157.27 382.21 80
4 06/14/2023 08:55:58 0.20,-160.84 -0.12,-162.22 157.61 80
5 06/16/2023 08:37:01 0.22,-161.64 0.90,-158.31 378.05 80
6 06/16/2023 20:59:51 -0.19,-161.87 0.11,-163.22 154.65 80
7 06/18/2023 20:40:54 -0.22,-162.66 -0.93,-159.32 380.15 80
8 06/19/2023 09:03:55 0.19,-162.86 -0.09,-164.27 159.81 80
9 06/21/2023 08:44:57 0.21,-163.65 0.92,-160.36 374.31 80
10 06/21/2023 21:07:48 -0.18,-163.86 0.10,-165.26 158.81 80
11 06/23/2023 20:48:50 -0.21,-164.65 -0.93,-161.35 375.06 80
